FW2418 Weather Reports


time (UTC)temp
F
wind
direction
speed
knots
gust
knots
rain 1hr
in
rain 24hr
in
rain mn
in
humidity
%
barometer
mb
20260904115548 75 126 0.0 0.0 0.00 0.02 0.00 99 1012.7
20260904114516 75 125 0.0 0.0 0.00 0.02 0.00 99 1013.0
20260904113515 75 126 0.0 0.0 0.00 0.02 0.00 99 1012.7
20260904112514 75 125 0.0 0.0 0.00 0.02 0.00 99 1012.7
20260904111514 75 125 0.0 0.0 0.00 0.02 0.00 99 1012.3
20260904110442 75 124 0.0 0.0 0.00 0.02 0.00 99 1012.3
20260904105441 75 124 0.0 0.0 0.00 0.02 0.00 99 1012.3
20260904104440 75 124 0.0 0.0 0.00 0.02 0.00 99 1012.0
20260904103439 75 124 0.0 0.0 0.00 0.02 0.00 99 1012.0
20260904102438 76 124 0.0 0.0 0.00 0.02 0.00 99 1012.0
20260904101437 76 124 0.0 0.0 0.00 0.02 0.00 99 1012.0
20260904100436 76 124 0.0 0.0 0.00 0.02 0.00 99 1011.7
20260904095435 76 124 0.0 0.0 0.00 0.02 0.00 99 1011.7
20260904094435 76 124 0.0 0.0 0.00 0.02 0.00 99 1011.7
20260904093434 76 124 0.0 0.0 0.00 0.02 0.00 99 1011.7
20260904092433 76 124 0.0 0.0 0.00 0.02 0.00 99 1011.7
20260904091432 76 124 0.0 0.0 0.00 0.02 0.00 99 1011.7
20260904090431 76 124 0.0 0.0 0.00 0.02 0.00 99 1011.7
20260904085431 76 124 0.0 0.0 0.00 0.02 0.00 99 1011.7
20260904084430 76 124 0.0 0.0 0.00 0.02 0.00 99 1011.7
20260904083429 76 124 0.0 0.0 0.00 0.02 0.00 99 1011.7
20260904082429 76 124 0.0 0.0 0.00 0.02 0.00 99 1011.7
20260904081428 76 124 0.0 0.0 0.00 0.02 0.00 99 1012.0
20260904080427 76 124 0.0 0.0 0.00 0.02 0.00 99 1011.7
20260904075426 76 124 0.0 0.0 0.00 0.02 0.00 99 1011.7
20260904074425 76 124 0.0 0.0 0.00 0.02 0.00 99 1011.7
20260904073424 76 124 0.0 0.0 0.00 0.02 0.00 99 1011.7
20260904072424 76 124 0.0 0.0 0.00 0.02 0.00 99 1011.7
20260904071423 76 124 0.0 0.0 0.00 0.02 0.00 99 1011.7
20260904070422 77 124 0.0 0.0 0.00 0.02 0.00 98 1011.7
20260904065421 77 124 0.0 0.0 0.00 0.02 0.00 98 1011.7
20260904064420 77 124 0.0 0.0 0.00 0.02 0.00 98 1011.7
20260904063420 77 124 0.0 0.0 0.00 0.02 0.00 98 1011.7
20260904062419 77 124 0.0 0.0 0.00 0.02 0.00 98 1011.7
20260904061418 77 124 0.0 0.0 0.00 0.02 0.00 98 1012.0
20260904060417 77 124 0.0 0.0 0.00 0.02 0.00 98 1012.0
20260904055416 77 124 0.0 0.0 0.00 0.02 0.00 98 1012.3
20260904054416 77 124 0.0 0.0 0.00 0.02 0.00 98 1012.3
20260904053415 77 124 0.0 0.0 0.00 0.02 0.00 98 1012.3
20260904052414 77 124 0.0 0.0 0.00 0.02 0.00 98 1012.3
20260904051342 77 124 0.0 0.0 0.00 0.02 0.00 98 1012.3
20260904050341 78 124 0.0 0.0 0.00 0.02 0.00 98 1012.3
20260904045341 78 124 0.0 0.0 0.00 0.02 0.00 97 1012.7
20260904044340 78 124 0.0 0.0 0.00 0.02 0.00 97 1012.7
20260904043307 78 124 0.0 0.0 0.00 0.02 0.00 97 1012.7
20260904042307 78 124 0.0 0.0 0.00 0.02 0.00 97 1012.7
20260904041306 79 124 0.0 0.0 0.00 0.02 0.00 97 1012.3
20260904040305 79 124 0.0 0.0 0.00 0.02 0.00 96 1012.3
20260904035306 79 124 0.0 0.9 0.00 0.02 0.02 96 1012.3
20260904034232 79 124 0.9 0.9 0.00 0.02 0.02 96 1012.3
20260904033231 80 124 0.0 0.9 0.00 0.02 0.02 96 1012.7
20260904032231 80 124 0.0 1.7 0.00 0.02 0.02 96 1012.3
20260904031230 80 124 0.9 2.6 0.00 0.02 0.02 96 1012.3
20260904030229 80 225 0.9 2.6 0.00 0.02 0.02 95 1012.3
20260904025228 80 119 1.7 2.6 0.00 0.02 0.02 95 1012.3
20260904024227 80 121 0.9 2.6 0.00 0.02 0.02 95 1012.3
20260904023226 80 164 0.9 3.5 0.00 0.02 0.02 95 1012.3
20260904022225 80 130 1.7 4.3 0.00 0.02 0.02 95 1012.3
20260904021224 80 186 0.9 2.6 0.00 0.02 0.02 95 1012.3
20260904020224 80 131 0.9 2.6 0.00 0.02 0.02 95 1012.3
20260904015223 80 113 0.9 2.6 0.00 0.02 0.02 95 1012.3
20260904014222 80 101 0.9 2.6 0.00 0.02 0.02 95 1012.3
20260904013221 80 128 0.9 2.6 0.00 0.02 0.02 95 1012.3
20260904012220 81 129 0.0 0.9 0.00 0.02 0.02 94 1012.0
20260904011219 81 111 0.9 0.9 0.00 0.02 0.02 94 1012.3
20260904010218 81 117 0.9 2.6 0.00 0.02 0.02 93 1012.3
20260904005146 81 124 0.0 2.6 0.00 0.02 0.02 93 1012.3
20260904004114 81 135 0.9 2.6 0.00 0.02 0.02 93 1012.0
20260904003114 82 126 0.9 2.6 0.00 0.02 0.02 93 1012.3
20260904002113 82 129 0.9 4.3 0.00 0.02 0.02 92 1012.0
20260904001112 82 124 0.9 4.3 0.00 0.02 0.02 92 1012.0
20260904000111 82 129 1.7 3.5 0.00 0.02 0.02 91 1011.7
20260903235110 82 138 0.9 1.7 0.00 0.02 0.02 91 1011.7
20260903234109 82 125 0.9 1.7 0.00 0.02 0.02 90 1011.7
20260903233109 83 129 0.9 1.7 0.00 0.02 0.02 89 1011.7
20260903232107 83 162 0.0 1.7 0.00 0.02 0.02 89 1011.7
20260903231107 83 195 0.0 3.5 0.00 0.02 0.02 88 1011.7
20260903230034 83 192 1.7 3.5 0.00 0.02 0.02 87 1011.7
20260903225034 84 120 0.9 3.5 0.00 0.02 0.02 87 1011.3
20260903224033 84 134 0.9 3.5 0.00 0.02 0.02 87 1011.3
20260903223032 84 147 1.7 2.6 0.00 0.02 0.02 87 1011.0
20260903222031 84 99 0.9 4.3 0.00 0.02 0.02 87 1011.0
20260903221030 85 177 1.7 4.3 0.00 0.02 0.02 86 1011.0
20260903215958 85 112 1.7 3.5 0.00 0.02 0.02 85 1011.3
20260903214957 85 121 0.9 2.6 0.00 0.02 0.02 84 1011.3
20260903213721 85 190 1.7 3.5 0.00 0.02 0.02 84 1011.0
20260903212720 85 140 0.9 2.6 0.00 0.02 0.02 83 1010.6
20260903211719 86 121 0.9 2.6 0.00 0.02 0.02 83 1010.6
20260903210718 86 123 0.9 2.6 0.00 0.02 0.02 82 1010.6
20260903205646 86 117 0.9 1.7 0.00 0.02 0.02 82 1010.6
20260903204645 86 84 1.7 3.5 0.00 0.02 0.02 81 1010.6
20260903203644 87 120 1.7 3.5 0.00 0.02 0.02 81 1010.6
20260903202643 87 73 0.9 2.6 0.00 0.02 0.02 80 1011.0
20260903201643 87 129 0.9 2.6 0.00 0.02 0.02 79 1011.0
20260903200642 87 102 0.9 2.6 0.00 0.02 0.02 78 1011.0
20260903195641 87 87 0.9 4.3 0.00 0.02 0.02 80 1011.3
20260903194640 87 134 1.7 4.3 0.00 0.02 0.02 80 1011.3
20260903193608 87 65 1.7 4.3 0.00 0.02 0.02 81 1011.7
20260903192607 87 53 1.7 5.2 0.00 0.02 0.02 80 1011.7
20260903191535 87 135 1.7 6.1 0.00 0.02 0.02 81 1011.7
20260903190534 88 180 0.9 3.5 0.00 0.02 0.02 80 1011.7
20260903185534 88 140 0.9 3.5 0.00 0.02 0.02 79 1012.0
20260903184533 88 111 0.9 4.3 0.00 0.02 0.02 80 1012.0
20260903183501 87 42 1.7 4.3 0.00 0.02 0.02 81 1012.0
20260903182429 86 119 1.7 4.3 0.00 0.02 0.02 83 1012.0
20260903181428 86 132 0.9 3.5 0.00 0.02 0.02 83 1012.3
20260903180356 86 136 0.9 2.6 0.00 0.02 0.02 84 1012.3
20260903175355 85 85 1.7 2.6 0.00 0.02 0.02 84 1012.3
20260903174354 85 114 0.9 2.6 0.00 0.02 0.02 84 1012.7
20260903173353 85 112 0.9 2.6 0.00 0.02 0.02 86 1012.7
20260903172353 85 149 0.9 2.6 0.00 0.02 0.02 85 1012.7
20260903171352 84 137 0.9 2.6 0.00 0.02 0.02 86 1012.7
20260903170351 84 120 1.7 2.6 0.00 0.02 0.02 85 1012.7
20260903165339 84 151 0.9 2.6 0.00 0.02 0.02 86 1013.0
20260903164338 83 107 0.9 1.7 0.00 0.02 0.02 87 1013.0
20260903163337 83 123 0.9 2.6 0.00 0.02 0.02 85 1013.3
20260903162336 82 193 0.0 3.5 0.00 0.02 0.02 86 1013.3
20260903161335 82 109 1.7 3.5 0.00 0.05 0.02 88 1013.3
20260903160335 82 115 0.9 1.7 0.00 0.05 0.02 90 1013.3
20260903155306 81 120 0.0 1.7 0.00 0.05 0.02 91 1013.3
20260903154302 81 79 0.9 0.9 0.00 0.05 0.02 92 1013.0
20260903153301 80 37 0.9 2.6 0.00 0.05 0.02 94 1013.0
20260903152300 80 70 0.9 3.5 0.00 0.05 0.02 94 1013.0
20260903151259 79 132 1.7 2.6 0.01 0.05 0.02 95 1013.0
20260903150258 79 151 0.9 2.6 0.01 0.05 0.02 95 1013.3
20260903145258 78 8 1.7 3.5 0.02 0.06 0.02 96 1013.3
20260903144257 78 84 0.9 2.6 0.02 0.06 0.02 97 1013.3
20260903143256 79 163 0.9 0.9 0.02 0.06 0.02 97 1013.0
20260903142255 79 127 0.0 3.5 0.02 0.06 0.02 96 1013.0
20260903141255 79 101 0.9 2.6 0.01 0.05 0.01 96 1013.3
20260903140253 80 128 0.9 2.6 0.01 0.05 0.01 95 1013.3
20260903135252 80 126 0.9 1.7 0.00 0.04 0.00 94 1013.0
20260903134252 81 176 0.9 0.9 0.00 0.04 0.00 95 1013.0
20260903133251 80 160 0.0 0.9 0.00 0.04 0.00 95 1013.0
20260903132250 79 159 0.0 0.9 0.00 0.04 0.00 97 1013.0
20260903131249 78 159 0.0 0.9 0.00 0.04 0.00 97 1013.0
20260903130248 78 170 0.0 4.3 0.00 0.04 0.00 96 1013.0
20260903125247 79 154 1.7 4.3 0.00 0.04 0.00 96 1013.0
20260903124247 80 178 1.7 3.5 0.00 0.04 0.00 97 1013.0
20260903123246 79 153 0.9 1.7 0.00 0.04 0.00 98 1013.0
20260903122245 79 169 0.0 0.9 0.00 0.04 0.00 99 1012.7
20260903121244 78 167 0.0 0.9 0.00 0.04 0.00 99 1012.7
20260903120244 78 44 0.0 0.0 0.00 0.04 0.00 99 1012.7